When you browse on this site, cookies collect data to enhance your experience and personalize the content and advertising you see.
Visit our Privacy Policy to learn more. By continuing to use the site, you agree to this use of cookies and data.
EN

Hourly Weather Kavarna

Today, 13 July, Monday

Time Temperature Precipitation Wind Pressure Humidity
00:00 +21°C° 0 mm 7 mps 758 mmHg 72%
01:00 +18°C° 0 mm 9 mps 759 mmHg 77%
02:00 +16°C° 0 mm 10 mps 759 mmHg 82%
03:00 +16°C° 0 mm 10 mps 759 mmHg 81%
04:00 +16°C° 0 mm 10 mps 759 mmHg 81%
05:00 +16°C° 0 mm 10 mps 759 mmHg 81%
06:00 +16°C° 0 mm 10 mps 759 mmHg 81%
07:00 +16°C° 0 mm 10 mps 760 mmHg 80%
08:00 +16°C° 0 mm 10 mps 760 mmHg 80%
09:00 +16°C° 0 mm 10 mps 760 mmHg 77%
10:00 +17°C° 0 mm 9 mps 760 mmHg 75%
11:00 +17°C° 0 mm 9 mps 760 mmHg 72%
12:00 +17°C° 0.1 mm 9 mps 760 mmHg 70%
13:00 +18°C° 0.1 mm 9 mps 760 mmHg 69%
14:00 +18°C° 0.1 mm 9 mps 760 mmHg 67%
15:00 +20°C° 0 mm 8 mps 760 mmHg 63%
16:00 +21°C° 0 mm 8 mps 760 mmHg 59%
17:00 +22°C° 0 mm 7 mps 759 mmHg 55%
18:00 +21°C° 0 mm 7 mps 759 mmHg 57%
19:00 +21°C° 0 mm 7 mps 759 mmHg 59%
20:00 +20°C° 0 mm 7 mps 760 mmHg 61%
21:00 +18°C° 0 mm 7 mps 760 mmHg 63%
22:00 +17°C° 0 mm 7 mps 760 mmHg 65%
23:00 +16°C° 0 mm 7 mps 760 mmHg 67%

Tomorrow, 14 July, Tuesday

Time Temperature Precipitation Wind Pressure Humidity
00:00 +16°C° 0 mm 7 mps 760 mmHg 72%
01:00 +15°C° 0 mm 7 mps 761 mmHg 76%
02:00 +14°C° 0 mm 7 mps 761 mmHg 81%
03:00 +14°C° 0 mm 7 mps 761 mmHg 81%
04:00 +14°C° 0 mm 7 mps 761 mmHg 82%
05:00 +12°C° 0 mm 7 mps 760 mmHg 83%
06:00 +15°C° 0 mm 7 mps 761 mmHg 74%
07:00 +17°C° 0 mm 6 mps 761 mmHg 65%
08:00 +20°C° 0 mm 6 mps 761 mmHg 56%
09:00 +22°C° 0 mm 6 mps 761 mmHg 50%
10:00 +23°C° 0 mm 5 mps 761 mmHg 44%
11:00 +25°C° 0 mm 5 mps 761 mmHg 39%
12:00 +26°C° 0 mm 5 mps 761 mmHg 39%
13:00 +26°C° 0 mm 5 mps 760 mmHg 39%
14:00 +27°C° 0 mm 5 mps 760 mmHg 38%
15:00 +26°C° 0 mm 5 mps 760 mmHg 42%
16:00 +25°C° 0 mm 4 mps 760 mmHg 45%
17:00 +25°C° 0 mm 4 mps 760 mmHg 48%
18:00 +22°C° 0 mm 4 mps 760 mmHg 52%
19:00 +21°C° 0 mm 3 mps 760 mmHg 55%
20:00 +20°C° 0 mm 3 mps 760 mmHg 59%
21:00 +19°C° 0 mm 3 mps 760 mmHg 61%
22:00 +19°C° 0 mm 3 mps 760 mmHg 64%
23:00 +18°C° 0 mm 3 mps 760 mmHg 67%

Day after tomorrow, 15 July, Wednesday

Time Temperature Precipitation Wind Pressure Humidity
00:00 +18°C° 0 mm 4 mps 760 mmHg 67%
01:00 +18°C° 0 mm 4 mps 760 mmHg 67%
02:00 +17°C° 0 mm 4 mps 760 mmHg 67%
03:00 +17°C° 0 mm 4 mps 760 mmHg 68%
04:00 +17°C° 0 mm 4 mps 760 mmHg 68%
05:00 +17°C° 0 mm 4 mps 760 mmHg 69%
06:00 +19°C° 0 mm 4 mps 760 mmHg 64%
07:00 +21°C° 0 mm 4 mps 761 mmHg 58%
08:00 +23°C° 0 mm 4 mps 761 mmHg 53%
09:00 +25°C° 0 mm 4 mps 761 mmHg 50%
10:00 +26°C° 0 mm 4 mps 761 mmHg 47%
11:00 +27°C° 0 mm 4 mps 761 mmHg 45%
12:00 +27°C° 0 mm 4 mps 761 mmHg 45%
13:00 +27°C° 0 mm 5 mps 761 mmHg 46%
14:00 +27°C° 0 mm 5 mps 760 mmHg 47%
15:00 +27°C° 0 mm 5 mps 760 mmHg 47%
16:00 +26°C° 0 mm 4 mps 760 mmHg 47%
17:00 +26°C° 0 mm 4 mps 760 mmHg 47%
18:00 +25°C° 0 mm 3 mps 760 mmHg 51%
19:00 +22°C° 0 mm 3 mps 760 mmHg 54%
20:00 +21°C° 0 mm 3 mps 760 mmHg 58%
21:00 +20°C° 0 mm 2 mps 760 mmHg 59%
22:00 +20°C° 0 mm 2 mps 760 mmHg 61%
23:00 +19°C° 0 mm 2 mps 760 mmHg 62%

16 July, Thursday

Time Temperature Precipitation Wind Pressure Humidity
00:00 +19°C° 0 mm 2 mps 760 mmHg 63%
01:00 +19°C° 0 mm 2 mps 760 mmHg 64%
02:00 +19°C° 0 mm 1 mps 760 mmHg 64%
03:00 +18°C° 0 mm 2 mps 759 mmHg 65%
04:00 +18°C° 0 mm 2 mps 759 mmHg 66%
05:00 +18°C° 0 mm 2 mps 759 mmHg 67%
06:00 +20°C° 0 mm 2 mps 759 mmHg 62%
07:00 +22°C° 0 mm 3 mps 759 mmHg 57%
08:00 +25°C° 0 mm 3 mps 759 mmHg 52%
09:00 +26°C° 0 mm 3 mps 759 mmHg 48%
10:00 +27°C° 0 mm 3 mps 759 mmHg 44%
11:00 +28°C° 0 mm 4 mps 759 mmHg 40%
12:00 +28°C° 0 mm 4 mps 759 mmHg 40%
13:00 +28°C° 0 mm 4 mps 758 mmHg 39%
14:00 +28°C° 0 mm 4 mps 758 mmHg 38%
15:00 +28°C° 0 mm 4 mps 758 mmHg 40%
16:00 +27°C° 0 mm 4 mps 758 mmHg 41%
17:00 +27°C° 0 mm 4 mps 757 mmHg 43%
18:00 +25°C° 0 mm 4 mps 758 mmHg 48%
19:00 +22°C° 0 mm 4 mps 758 mmHg 54%
20:00 +21°C° 0 mm 3 mps 758 mmHg 59%
21:00 +20°C° 0 mm 3 mps 758 mmHg 63%
22:00 +20°C° 0 mm 3 mps 758 mmHg 67%
23:00 +19°C° 0 mm 3 mps 758 mmHg 71%

17 July, Friday

Time Temperature Precipitation Wind Pressure Humidity
00:00 +19°C° 0 mm 3 mps 758 mmHg 72%
01:00 +19°C° 0 mm 3 mps 757 mmHg 74%
02:00 +19°C° 0 mm 2 mps 757 mmHg 75%
03:00 +18°C° 0 mm 3 mps 757 mmHg 76%
04:00 +18°C° 0 mm 3 mps 757 mmHg 76%
05:00 +18°C° 0 mm 3 mps 757 mmHg 76%
06:00 +20°C° 0 mm 3 mps 757 mmHg 70%
07:00 +22°C° 0 mm 3 mps 757 mmHg 63%
08:00 +25°C° 0 mm 3 mps 758 mmHg 57%
09:00 +27°C° 0 mm 4 mps 758 mmHg 52%
10:00 +28°C° 0 mm 4 mps 758 mmHg 47%
11:00 +29°C° 0 mm 5 mps 758 mmHg 43%
12:00 +29°C° 0 mm 5 mps 757 mmHg 43%
13:00 +29°C° 0 mm 5 mps 757 mmHg 43%
14:00 +29°C° 0 mm 5 mps 757 mmHg 43%
15:00 +29°C° 0 mm 5 mps 757 mmHg 46%
16:00 +29°C° 0 mm 6 mps 757 mmHg 49%
17:00 +28°C° 0 mm 6 mps 757 mmHg 52%
18:00 +27°C° 0 mm 5 mps 757 mmHg 59%
19:00 +25°C° 0 mm 5 mps 757 mmHg 67%
20:00 +22°C° 0 mm 5 mps 757 mmHg 74%
21:00 +22°C° 0 mm 5 mps 757 mmHg 76%
22:00 +22°C° 0 mm 5 mps 757 mmHg 78%
23:00 +21°C° 0 mm 5 mps 758 mmHg 79%

18 July, Saturday

Time Temperature Precipitation Wind Pressure Humidity
00:00 +21°C° 0 mm 4 mps 758 mmHg 80%
01:00 +21°C° 0 mm 4 mps 757 mmHg 81%
02:00 +21°C° 0 mm 4 mps 757 mmHg 82%
03:00 +20°C° 0 mm 4 mps 757 mmHg 82%
04:00 +20°C° 0 mm 4 mps 757 mmHg 82%
05:00 +20°C° 0 mm 4 mps 757 mmHg 82%
06:00 +22°C° 0 mm 5 mps 757 mmHg 74%
07:00 +25°C° 0 mm 5 mps 758 mmHg 65%
08:00 +27°C° 0 mm 6 mps 758 mmHg 57%
09:00 +28°C° 0 mm 6 mps 758 mmHg 53%
10:00 +29°C° 0 mm 6 mps 758 mmHg 49%
11:00 +30°C° 0 mm 6 mps 758 mmHg 46%
12:00 +30°C° 0 mm 6 mps 757 mmHg 45%
13:00 +30°C° 0 mm 7 mps 757 mmHg 44%
14:00 +32°C° 0 mm 7 mps 757 mmHg 44%
15:00 +30°C° 0 mm 7 mps 757 mmHg 47%
16:00 +29°C° 0 mm 6 mps 756 mmHg 50%
17:00 +29°C° 0 mm 6 mps 756 mmHg 53%
18:00 +27°C° 0 mm 6 mps 756 mmHg 61%
19:00 +26°C° 0 mm 5 mps 756 mmHg 68%
20:00 +23°C° 0 mm 5 mps 756 mmHg 76%
21:00 +23°C° 0 mm 5 mps 756 mmHg 78%
22:00 +22°C° 0 mm 5 mps 756 mmHg 81%
23:00 +22°C° 0 mm 5 mps 756 mmHg 83%
Show more